SCP
0 0 0 0 0 0 0 0 0 0 0 0 0 0 0 0 0 0 0 0 0 0 0 0 0 0 0 0 0 0 0 0 0 0 0 0 0 0 0 0 0 0 0
0 0 0 0 0 0 0 0 0 0 0 0 0 0 0 0 -0 -0 0 0 0 0 0 0 0 0 0 0 0 0 0 0 0 0 0 0 0 0 0 0 0 0 0
0 0 0 0 0 0 0 0 0 0 0 0 0 0 0 0 0 -0 -0 0 0 0 0 0 0 0 0 0 0 0 0 0 0 0 0 0 0 -0 0 0 0 0 0
0 0 0 0 0 0 0 0 0 0 0 0 0 0 -0 -0 -0 -0 -0 -0 -0 0 0 0 0 0 0 0 0 0 0 0 0 0 0 0 0 0 0 0 0 0 0
0 0 0 0 0 0 0 0 0 0 0 0 0 0 0 0 -0 -0 -0 -0 -0 0 0 0 0 0 0 0 0 0 0 0 0 0 0 0 0 0 0 0 0 -0 0
0 0 0 0 0 0 0 0 0 0 0 0 0 0 0 0 0 -0 -0 0 0 0 0 0 0 0 0 0 0 0 0 0 0 0 0 0 0 0 0 0 -0 -0 0
0 0 0 0 0 0 0 0 0 0 0 0 0 0 -0 -0 -0 -0 0 0 0 0 0 0 0 0 0 0 0 0 0 0 0 0 0 0 0 0 0 0 0 0 -0
0 0 0 0 0 0 0 0 0 0 0 0 0 0 0 0 -0 -0 -0 -0 -0 0 0 0 0 0 0 0 0 0 0 0 0 0 0 0 0 0 0 0 0 0 0
0 0 0 0 0 0 0 0 0 0 0 0 0 0 0 0 0 -0 -0 -0 -0 0 0 0 0 0 0 0 0 0 0 0 0 0 0 0 0 0 0 0 0 0 0
0 0 0 0 0 0 0 0 0 0 0 -0 0 0 0 0 0 0 0 0 0 0 0 0 0 0 0 0 0 0 0 0 0 0 0 0 0 0 0 0 0 0 0
0 0 0 0 0 0 0 0 0 0 0 0 0 0 0 0 0 0 -0 -0 -0 0 0 0 0 0 0 0 0 0 0 0 0 0 0 0 0 0 0 0 0 0 0
0 0 0 0 0 0 0 0 0 0 0 0 0 0 0 0 0 0 0 0 0 0 0 0 0 0 0 0 0 0 0 0 0 0 0 0 0 0 0 0 0 0 0
0 0 0 0 0 0 0 0 0 0 0 0 0 0 0 0 0 0 0 0 0 0 0 0 0 0 0 0 0 0 0 0 0 0 0 0 0 0 0 0 0 0 0
0 0 0 0 -0 0 0 0 0 0 0 0 0 0 0 0 0 0 0 0 0 0 0 0 0 0 0 0 0 0 0 0 0 0 0 0 0 0 0 0 0 0 0
0 0 0 0 0 0 0 0 0 0 0 0 0 0 0 0 0 0 0 0 0 0 0 0 0 0 0 0 0 0 0 0 0 0 0 0 0 0 0 0 0 0 0
0 0 0 0 0 0 0 0 0 0 0 0 0 0 0 0 0 0 0 0 0 0 0 0 0 0 0 0 0 0 0 0 0 0 0 0 0 0 0 0 0 0 0
0 0 0 0 0 0 0 0 0 0 0 0 0 0 0 0 0 0 0 0 0 0 0 0 0 0 0 0 0 0 0 0 0 0 0 0 0 0 0 0 0 0 0
0 0 0 0 0 0 0 0 0 0 0 0 0 0 0 0 0 0 0 0 0 0 0 0 0 0 0 0 0 0 0 0 0 0 0 0 0 0 0 0 0 0 0
0 0 0 0 0 0 0 0 0 0 0 0 0 0 0 0 0 0 0 0 0 0 0 0 0 0 0 0 0 0 0 0 0 0 0 0 0 0 0 0 0 0 0
0 0 0 0 0 0 0 0 0 0 0 0 0 0 0 0 0 0 0 0 0 0 0 0 0 0 0 0 0 0 0 0 0 0 0 0 0 0 0 0 0 0 0
0 0 0 0 0 0 0 0 0 0 0 0 0 0 0 0 0 0 0 0 0 0 0 0 0 0 0 0 0 0 0 0 0 0 0 0 0 0 0 0 0 0 0
0 0 0 0 0 0 0 0 0 0 0 0 0 0 0 0 0 0 0 0 0 0 0 0 0 0 0 0 0 0 0 0 0 0 0 0 0 0 0 0 0 0 0
0 0 0 0 0 0 0 0 0 0 0 0 0 0 0 0 0 0 0 0 0 0 0 0 0 0 0 0 0 0 0 0 0 0 0 0 0 0 0 0 0 0 0
0 0 0 0 0 0 0 0 0 0 0 0 0 0 0 0 0 -0 0 0 0 0 0 0 0 0 0 0 0 0 0 0 0 0 0 0 0 0 0 0 0 0 0
0 0 0 0 0 0 0 0 0 0 0 0 0 0 0 0 0 0 0 0 0 0 0 0 0 0 0 0 0 0 0 0 0 0 0 0 0 0 0 0 0 0 0
0 0 0 0 0 0 0 0 0 0 0 0 0 0 0 0 0 0 0 0 0 0 0 0 0 0 0 0 0 0 0 0 0 0 0 0 0 0 0 0 0 0 0
Wind_Speed_500mb
30 35 38 41 37 26 21 29 34 36 31 28 26 29 28 26 28 32 32 29 30 33 34 34 35 38 39 38 39 42 40 39 34 41 43 44 40 36 32 36 36 35 41
24 30 32 33 33 32 28 26 22 25 31 32 35 32 28 25 29 31 30 34 33 33 33 33 34 32 33 33 34 35 36 34 24 29 34 20 25 5 5 6 12 19 24
24 26 27 28 30 34 35 33 30 26 28 34 35 33 32 31 29 30 30 31 33 33 30 32 33 30 28 26 24 21 24 24 11 12 14 14 10 45 21 26 31 29 30
25 29 34 36 36 37 37 38 35 32 31 31 35 36 36 35 34 35 35 32 33 33 31 33 32 28 25 23 19 16 10 14 14 12 15 21 28 18 25 35 49 42 37
26 31 35 38 38 38 41 43 42 39 36 36 38 40 39 37 36 36 37 34 33 33 32 30 31 28 22 20 17 12 9 13 17 18 26 28 30 32 35 47 48 54 45
27 29 32 34 33 37 41 45 47 47 46 47 46 45 42 38 38 36 36 34 33 32 31 31 32 33 27 22 15 15 17 18 20 24 28 31 30 35 35 48 57 60 60
26 29 32 34 35 37 42 44 44 48 43 47 48 47 44 40 40 40 39 36 33 31 30 30 31 32 29 25 23 20 20 20 25 28 30 30 31 32 33 39 49 59 64
26 33 33 30 38 42 44 41 40 43 41 44 46 44 43 38 39 40 39 38 37 35 32 31 32 33 30 25 24 25 24 25 30 31 32 34 35 31 33 36 42 55 59
31 38 34 29 35 45 51 50 43 38 37 39 40 39 38 38 39 39 38 37 36 35 32 32 31 30 30 27 25 27 28 29 29 31 35 35 35 34 30 32 36 42 53
35 45 36 32 34 44 53 57 46 40 36 35 35 34 35 36 37 37 36 37 37 36 35 34 34 32 31 30 31 30 29 29 29 30 31 35 35 38 41 41 42 43 50
37 47 34 34 39 48 60 64 47 41 36 34 34 35 34 36 37 37 36 36 35 36 37 37 36 36 34 31 31 31 31 33 35 35 39 37 39 42 44 47 50 52 54
38 39 34 37 48 60 57 47 39 37 35 35 36 35 34 34 35 36 36 37 36 35 36 36 37 37 37 36 36 37 36 35 35 36 35 35 39 42 46 50 53 54 53
39 36 34 51 61 59 53 46 42 38 34 32 32 33 35 33 33 35 36 36 36 36 36 37 38 37 37 37 36 37 36 37 38 39 42 45 43 42 41 39 38 38 41
42 41 52 61 61 54 51 48 40 37 37 36 36 34 32 32 34 36 36 37 37 37 37 38 39 38 38 38 37 37 37 36 37 39 40 40 39 39 32 33 40 39 43
36 51 61 60 56 50 46 42 37 36 35 35 35 31 28 31 34 35 36 38 39 40 40 40 39 39 40 38 39 40 40 39 38 38 38 39 40 37 30 28 34 36 42
47 55 54 49 47 46 42 38 37 35 33 32 30 28 28 31 31 31 34 37 37 38 42 42 42 41 40 39 40 41 43 42 40 40 38 37 38 34 30 31 37 38 46
48 55 45 41 40 42 41 37 36 35 32 32 32 33 33 32 30 31 33 34 37 41 43 43 44 43 41 38 40 39 41 42 39 39 39 39 38 36 36 36 36 37 37
54 49 37 39 39 39 35 32 34 33 34 31 31 31 33 34 35 37 38 38 39 42 44 43 42 45 42 39 41 41 43 43 41 40 39 40 40 39 39 37 42 36 36
49 43 34 35 38 36 36 35 33 34 36 35 36 38 40 41 40 40 41 42 46 47 47 47 46 46 46 43 45 46 47 47 42 39 39 41 40 40 37 36 44 41 37
44 37 33 34 34 30 32 32 35 37 38 41 42 41 40 41 42 42 43 43 45 47 50 49 48 49 51 44 45 47 49 50 43 40 39 39 39 36 36 37 40 43 38
42 34 32 30 28 26 31 37 40 40 42 45 45 44 43 43 42 44 45 48 50 51 52 53 51 50 48 48 48 49 53 51 48 46 40 38 40 38 37 39 40 41 40
41 36 33 32 27 26 31 34 39 42 45 48 47 47 47 47 47 48 49 49 50 53 57 61 61 57 53 48 51 55 56 55 57 54 44 42 43 41 40 41 41 41 39
41 34 33 35 33 31 36 44 44 44 48 50 51 52 52 51 50 51 50 51 51 53 55 58 63 64 60 56 48 52 56 57 61 57 48 48 46 44 42 40 42 43 42
37 34 37 38 39 39 45 46 46 46 50 54 57 59 60 62 61 61 60 59 56 58 59 61 64 64 64 61 53 49 50 55 60 60 55 51 50 47 45 42 41 41 41
32 35 37 45 53 51 51 50 48 48 54 57 58 58 58 60 66 66 65 65 62 60 64 64 66 69 71 61 58 55 53 49 53 56 59 60 59 53 48 45 43 43 42
32 38 46 52 54 58 59 56 51 51 55 59 60 60 61 61 64 67 70 63 64 66 66 63 60 63 65 64 57 55 54 54 50 53 66 66 63 56 50 47 44 43 42
Wind_Direction_500mb
21 15 11 10 7 356 323 299 301 307 303 296 300 302 300 301 309 306 306 302 297 295 295 295 295 294 293 293 291 289 290 286 288 294 296 295 296 289 284 275 273 272 273
13 11 7 6 6 356 344 340 333 322 315 311 309 306 306 311 316 316 313 309 306 304 304 303 302 301 299 299 296 290 293 291 289 303 323 333 345 49 352 317 322 286 279
360 357 349 342 346 333 332 332 329 329 329 318 314 311 311 313 317 315 314 311 307 307 307 308 308 307 308 313 312 301 290 294 294 286 314 329 318 315 318 293 297 302 300
338 337 336 333 333 327 333 336 329 326 323 319 318 313 311 314 317 320 320 320 316 314 314 313 312 309 303 309 315 316 300 272 294 287 275 280 300 320 315 301 302 300 294
340 329 322 311 309 310 315 321 323 319 315 314 319 316 313 312 316 319 320 322 322 316 315 315 312 306 293 293 298 287 270 267 288 292 292 293 279 284 296 308 302 300 298
341 329 322 320 313 305 301 301 305 311 316 313 315 317 311 310 313 316 317 322 322 316 317 315 312 307 294 295 289 274 263 254 271 283 286 294 296 298 301 300 302 305 303
346 347 346 348 345 330 312 301 299 299 305 311 314 319 318 308 312 316 317 317 316 317 316 315 313 315 301 295 295 289 272 259 274 280 286 290 287 287 292 296 297 301 301
342 345 342 342 352 349 345 330 313 303 304 302 305 311 315 307 309 313 312 317 318 319 317 314 314 316 313 300 295 291 287 278 273 277 282 284 285 283 284 290 298 300 299
354 348 346 342 346 356 355 348 336 323 317 310 307 306 309 310 310 310 310 313 315 314 312 311 312 314 309 304 296 294 294 291 287 283 280 284 282 274 283 286 287 290 296
340 350 344 341 341 342 345 346 337 327 324 319 318 312 308 308 308 308 311 311 313 312 312 312 312 311 312 304 292 285 283 282 284 292 290 289 291 279 275 277 280 280 284
340 342 340 341 337 334 331 333 329 325 315 315 318 320 319 312 309 309 309 308 308 311 313 314 312 311 310 310 308 307 297 284 285 280 280 281 283 284 280 277 276 278 277
339 340 342 343 337 328 331 335 329 325 324 312 311 316 319 315 310 310 309 306 306 307 308 310 310 310 308 305 303 301 301 300 299 299 303 302 298 288 280 275 271 274 275
335 332 331 334 335 334 333 331 325 324 318 315 314 314 314 311 309 309 310 308 304 305 307 307 307 306 305 302 301 299 299 299 298 298 300 304 303 301 297 294 291 293 289
332 333 335 335 336 336 336 334 327 321 318 316 313 309 320 311 307 306 307 306 304 304 305 304 304 304 303 303 301 299 298 298 298 299 301 303 303 301 302 305 301 301 298
334 338 339 337 338 339 340 343 344 343 333 325 322 316 316 319 313 311 309 307 305 305 303 300 301 302 301 302 300 301 301 302 301 301 302 303 301 299 287 288 290 296 295
335 336 334 336 341 345 345 347 347 351 352 347 339 331 321 318 317 314 311 312 309 305 300 299 298 297 297 300 300 301 302 304 304 303 302 302 301 299 286 273 276 281 290
335 333 330 335 341 347 351 356 357 355 350 343 341 338 335 331 326 318 315 317 312 307 303 299 295 295 296 299 299 298 297 298 297 297 299 300 300 297 293 289 282 282 285
329 328 323 327 335 338 341 349 350 349 350 352 353 345 336 332 328 322 316 313 310 308 308 303 296 291 291 290 289 289 288 287 290 292 296 299 301 301 296 295 292 291 284
321 317 314 318 324 327 329 331 339 345 344 346 347 345 339 335 333 328 322 317 311 309 309 305 299 293 290 289 289 289 290 291 291 289 289 294 298 301 298 291 296 302 299
312 298 294 308 319 323 328 334 341 345 344 345 345 343 338 331 326 322 322 319 312 307 306 305 303 298 292 286 283 284 285 284 288 285 286 288 291 294 298 293 296 299 303
302 282 287 301 314 318 327 335 340 338 336 335 337 338 336 334 332 327 326 321 316 312 308 305 302 296 292 290 282 277 277 280 280 277 278 281 283 289 293 295 294 297 297
290 277 285 295 313 315 318 327 334 333 330 330 333 334 333 334 333 329 326 323 320 317 314 311 304 298 295 290 282 279 275 276 273 274 274 277 279 284 288 291 295 296 292
280 277 290 297 308 316 321 324 326 326 325 326 330 332 330 332 334 334 333 330 326 321 317 314 309 305 303 296 290 282 277 272 271 273 272 271 273 278 282 286 289 290 288
281 289 299 304 306 317 322 322 321 322 322 325 328 329 330 332 333 334 335 334 334 327 321 317 312 309 304 300 299 295 285 274 270 269 270 272 273 275 280 281 283 283 284
283 298 309 312 310 314 318 321 324 323 323 324 326 327 328 329 328 328 330 330 331 329 324 319 313 310 305 305 300 295 293 289 275 270 266 265 268 272 274 277 279 277 278
301 306 309 316 318 318 316 315 319 320 318 317 320 323 324 324 324 324 323 324 323 322 319 315 308 304 300 302 299 292 288 286 284 265 259 261 264 266 270 273 275 274 277
Wind_Speed_850mb
30 35 38 41 37 26 21 29 34 36 31 28 26 29 28 26 28 32 32 29 30 33 34 34 35 38 39 38 39 42 40 39 34 41 43 44 40 36 32 36 36 35 41
24 30 32 33 33 32 28 26 22 25 31 32 35 32 28 25 29 31 30 34 33 33 33 33 34 32 33 33 34 35 36 34 24 29 34 20 25 5 5 6 12 19 24
24 26 27 28 30 34 35 33 30 26 28 34 35 33 32 31 29 30 30 31 33 33 30 32 33 30 28 26 24 21 24 24 11 12 14 14 10 45 21 26 31 29 30
25 29 34 36 36 37 37 38 35 32 31 31 35 36 36 35 34 35 35 32 33 33 31 33 32 28 25 23 19 16 10 14 14 12 15 21 28 18 25 35 49 42 37
26 31 35 38 38 38 41 43 42 39 36 36 38 40 39 37 36 36 37 34 33 33 32 30 31 28 22 20 17 12 9 13 17 18 26 28 30 32 35 47 48 54 45
27 29 32 34 33 37 41 45 47 47 46 47 46 45 42 38 38 36 36 34 33 32 31 31 32 33 27 22 15 15 17 18 20 24 28 31 30 35 35 48 57 60 60
26 29 32 34 35 37 42 44 44 48 43 47 48 47 44 40 40 40 39 36 33 31 30 30 31 32 29 25 23 20 20 20 25 28 30 30 31 32 33 39 49 59 64
26 33 33 30 38 42 44 41 40 43 41 44 46 44 43 38 39 40 39 38 37 35 32 31 32 33 30 25 24 25 24 25 30 31 32 34 35 31 33 36 42 55 59
31 38 34 29 35 45 51 50 43 38 37 39 40 39 38 38 39 39 38 37 36 35 32 32 31 30 30 27 25 27 28 29 29 31 35 35 35 34 30 32 36 42 53
35 45 36 32 34 44 53 57 46 40 36 35 35 34 35 36 37 37 36 37 37 36 35 34 34 32 31 30 31 30 29 29 29 30 31 35 35 38 41 41 42 43 50
37 47 34 34 39 48 60 64 47 41 36 34 34 35 34 36 37 37 36 36 35 36 37 37 36 36 34 31 31 31 31 33 35 35 39 37 39 42 44 47 50 52 54
38 39 34 37 48 60 57 47 39 37 35 35 36 35 34 34 35 36 36 37 36 35 36 36 37 37 37 36 36 37 36 35 35 36 35 35 39 42 46 50 53 54 53
39 36 34 51 61 59 53 46 42 38 34 32 32 33 35 33 33 35 36 36 36 36 36 37 38 37 37 37 36 37 36 37 38 39 42 45 43 42 41 39 38 38 41
42 41 52 61 61 54 51 48 40 37 37 36 36 34 32 32 34 36 36 37 37 37 37 38 39 38 38 38 37 37 37 36 37 39 40 40 39 39 32 33 40 39 43
36 51 61 60 56 50 46 42 37 36 35 35 35 31 28 31 34 35 36 38 39 40 40 40 39 39 40 38 39 40 40 39 38 38 38 39 40 37 30 28 34 36 42
47 55 54 49 47 46 42 38 37 35 33 32 30 28 28 31 31 31 34 37 37 38 42 42 42 41 40 39 40 41 43 42 40 40 38 37 38 34 30 31 37 38 46
48 55 45 41 40 42 41 37 36 35 32 32 32 33 33 32 30 31 33 34 37 41 43 43 44 43 41 38 40 39 41 42 39 39 39 39 38 36 36 36 36 37 37
54 49 37 39 39 39 35 32 34 33 34 31 31 31 33 34 35 37 38 38 39 42 44 43 42 45 42 39 41 41 43 43 41 40 39 40 40 39 39 37 42 36 36
49 43 34 35 38 36 36 35 33 34 36 35 36 38 40 41 40 40 41 42 46 47 47 47 46 46 46 43 45 46 47 47 42 39 39 41 40 40 37 36 44 41 37
44 37 33 34 34 30 32 32 35 37 38 41 42 41 40 41 42 42 43 43 45 47 50 49 48 49 51 44 45 47 49 50 43 40 39 39 39 36 36 37 40 43 38
42 34 32 30 28 26 31 37 40 40 42 45 45 44 43 43 42 44 45 48 50 51 52 53 51 50 48 48 48 49 53 51 48 46 40 38 40 38 37 39 40 41 40
41 36 33 32 27 26 31 34 39 42 45 48 47 47 47 47 47 48 49 49 50 53 57 61 61 57 53 48 51 55 56 55 57 54 44 42 43 41 40 41 41 41 39
41 34 33 35 33 31 36 44 44 44 48 50 51 52 52 51 50 51 50 51 51 53 55 58 63 64 60 56 48 52 56 57 61 57 48 48 46 44 42 40 42 43 42
37 34 37 38 39 39 45 46 46 46 50 54 57 59 60 62 61 61 60 59 56 58 59 61 64 64 64 61 53 49 50 55 60 60 55 51 50 47 45 42 41 41 41
32 35 37 45 53 51 51 50 48 48 54 57 58 58 58 60 66 66 65 65 62 60 64 64 66 69 71 61 58 55 53 49 53 56 59 60 59 53 48 45 43 43 42
32 38 46 52 54 58 59 56 51 51 55 59 60 60 61 61 64 67 70 63 64 66 66 63 60 63 65 64 57 55 54 54 50 53 66 66 63 56 50 47 44 43 42
Wind_Direction_850mb
21 15 11 10 7 356 323 299 301 307 303 296 300 302 300 301 309 306 306 302 297 295 295 295 295 294 293 293 291 289 290 286 288 294 296 295 296 289 284 275 273 272 273
13 11 7 6 6 356 344 340 333 322 315 311 309 306 306 311 316 316 313 309 306 304 304 303 302 301 299 299 296 290 293 291 289 303 323 333 345 49 352 317 322 286 279
360 357 349 342 346 333 332 332 329 329 329 318 314 311 311 313 317 315 314 311 307 307 307 308 308 307 308 313 312 301 290 294 294 286 314 329 318 315 318 293 297 302 300
338 337 336 333 333 327 333 336 329 326 323 319 318 313 311 314 317 320 320 320 316 314 314 313 312 309 303 309 315 316 300 272 294 287 275 280 300 320 315 301 302 300 294
340 329 322 311 309 310 315 321 323 319 315 314 319 316 313 312 316 319 320 322 322 316 315 315 312 306 293 293 298 287 270 267 288 292 292 293 279 284 296 308 302 300 298
341 329 322 320 313 305 301 301 305 311 316 313 315 317 311 310 313 316 317 322 322 316 317 315 312 307 294 295 289 274 263 254 271 283 286 294 296 298 301 300 302 305 303
346 347 346 348 345 330 312 301 299 299 305 311 314 319 318 308 312 316 317 317 316 317 316 315 313 315 301 295 295 289 272 259 274 280 286 290 287 287 292 296 297 301 301
342 345 342 342 352 349 345 330 313 303 304 302 305 311 315 307 309 313 312 317 318 319 317 314 314 316 313 300 295 291 287 278 273 277 282 284 285 283 284 290 298 300 299
354 348 346 342 346 356 355 348 336 323 317 310 307 306 309 310 310 310 310 313 315 314 312 311 312 314 309 304 296 294 294 291 287 283 280 284 282 274 283 286 287 290 296
340 350 344 341 341 342 345 346 337 327 324 319 318 312 308 308 308 308 311 311 313 312 312 312 312 311 312 304 292 285 283 282 284 292 290 289 291 279 275 277 280 280 284
340 342 340 341 337 334 331 333 329 325 315 315 318 320 319 312 309 309 309 308 308 311 313 314 312 311 310 310 308 307 297 284 285 280 280 281 283 284 280 277 276 278 277
339 340 342 343 337 328 331 335 329 325 324 312 311 316 319 315 310 310 309 306 306 307 308 310 310 310 308 305 303 301 301 300 299 299 303 302 298 288 280 275 271 274 275
335 332 331 334 335 334 333 331 325 324 318 315 314 314 314 311 309 309 310 308 304 305 307 307 307 306 305 302 301 299 299 299 298 298 300 304 303 301 297 294 291 293 289
332 333 335 335 336 336 336 334 327 321 318 316 313 309 320 311 307 306 307 306 304 304 305 304 304 304 303 303 301 299 298 298 298 299 301 303 303 301 302 305 301 301 298
334 338 339 337 338 339 340 343 344 343 333 325 322 316 316 319 313 311 309 307 305 305 303 300 301 302 301 302 300 301 301 302 301 301 302 303 301 299 287 288 290 296 295
335 336 334 336 341 345 345 347 347 351 352 347 339 331 321 318 317 314 311 312 309 305 300 299 298 297 297 300 300 301 302 304 304 303 302 302 301 299 286 273 276 281 290
335 333 330 335 341 347 351 356 357 355 350 343 341 338 335 331 326 318 315 317 312 307 303 299 295 295 296 299 299 298 297 298 297 297 299 300 300 297 293 289 282 282 285
329 328 323 327 335 338 341 349 350 349 350 352 353 345 336 332 328 322 316 313 310 308 308 303 296 291 291 290 289 289 288 287 290 292 296 299 301 301 296 295 292 291 284
321 317 314 318 324 327 329 331 339 345 344 346 347 345 339 335 333 328 322 317 311 309 309 305 299 293 290 289 289 289 290 291 291 289 289 294 298 301 298 291 296 302 299
312 298 294 308 319 323 328 334 341 345 344 345 345 343 338 331 326 322 322 319 312 307 306 305 303 298 292 286 283 284 285 284 288 285 286 288 291 294 298 293 296 299 303
302 282 287 301 314 318 327 335 340 338 336 335 337 338 336 334 332 327 326 321 316 312 308 305 302 296 292 290 282 277 277 280 280 277 278 281 283 289 293 295 294 297 297
290 277 285 295 313 315 318 327 334 333 330 330 333 334 333 334 333 329 326 323 320 317 314 311 304 298 295 290 282 279 275 276 273 274 274 277 279 284 288 291 295 296 292
280 277 290 297 308 316 321 324 326 326 325 326 330 332 330 332 334 334 333 330 326 321 317 314 309 305 303 296 290 282 277 272 271 273 272 271 273 278 282 286 289 290 288
281 289 299 304 306 317 322 322 321 322 322 325 328 329 330 332 333 334 335 334 334 327 321 317 312 309 304 300 299 295 285 274 270 269 270 272 273 275 280 281 283 283 284
283 298 309 312 310 314 318 321 324 323 323 324 326 327 328 329 328 328 330 330 331 329 324 319 313 310 305 305 300 295 293 289 275 270 266 265 268 272 274 277 279 277 278
301 306 309 316 318 318 316 315 319 320 318 317 320 323 324 324 324 324 323 324 323 322 319 315 308 304 300 302 299 292 288 286 284 265 259 261 264 266 270 273 275 274 277